NOAA NWS Hourly Roundups by Site

Regional Weather Roundup for Phoenix, AZ

To Select Another Site Choose from List

Select Site:  

000
ASUS45 KPSR 102210
RWRAZ

ARIZONA HOURLY REGIONAL WEATHER ROUNDUP
NATIONAL WEATHER SERVICE PHOENIX AZ
300 PM MST SAT APR 10 2021

NOTE: FAIR INDICATES FEW OR NO CLOUDS BELOW 12,000 FEET WITH NO
SIGNIFICANT WEATHER AND/OR OBSTRUCTIONS TO VISIBILITY.

AZZ001>003-036-102300-
NORTHWEST ARIZONA

CITY           SKY/WX    TMP DP  RH WIND       PRES   REMARKS
BULLHEAD CITY  MOSUNNY   90  12   5 CALM      29.72F
KINGMAN        SUNNY     81   8   6 SW18G25   29.87S
$$

AZZ004>008-015-016-018-102300-
NORTH CENTRAL ARIZONA

CITY           SKY/WX    TMP DP  RH WIND       PRES   REMARKS
GRAND CANYON   SUNNY     66   3   8 NW12G24   29.99F
WILLIAMS       SUNNY     68   3   8 W13G23    30.00F
PRESCOTT       SUNNY     74  14  10 SW15G24   29.93F
FLAGSTAFF      SUNNY     68   8   9 SW20G30   30.00F
PAYSON         SUNNY     73   9   8 VRB5G17   29.95F
PAGE           SUNNY     77  -6   4 E8        29.83F
$$

AZZ009>014-017-102300-
NORTHEAST ARIZONA

CITY           SKY/WX    TMP DP  RH WIND       PRES   REMARKS
WINSLOW        SUNNY     77   0   5 NE9       29.89F
SAINT JOHNS    SUNNY     74   0   5 NW23G36   29.88F
WINDOW ROCK    SUNNY     71  -3   5 W14       29.92F
SHOW LOW       SUNNY     72   5   7 SW21G31   29.96F
$$

AZZ540-542>544-546-548-102300-
GREATER PHOENIX AREA

CITY           SKY/WX    TMP DP  RH WIND       PRES   REMARKS
PHOENIX        MOSUNNY   93  18   6 VRB6      29.71F
BUCKEYE          N/A     91  19   7 W10       29.73F
GLENDALE       MOSUNNY   91  16   6 SW13G21   29.75F
LUKE AFB       SUNNY     92  16   6 S14G23    29.71F
DEER VALLEY    SUNNY     90  20   7 SW9G23    29.74F
SCOTTSDALE     SUNNY     91  18   7 W13       29.76F
MESA-FALCON    SUNNY     90  15   6 S9        29.74F
MESA-GATEWAY   MOSUNNY   91  16   6 W7        29.76F
CHANDLER       SUNNY     91  10   5 W7        29.74F
$$

AZZ539-553-102300-
SOUTHWEST MARICOPA COUNTY AND PINAL COUNTY

CITY           SKY/WX    TMP DP  RH WIND       PRES   REMARKS
CASA GRANDE    SUNNY     91  15   6 MISG        N/A
GILA BEND      FAIR      95  11   4 W10       29.70F
$$

AZZ503-504-507>509-102300-
SOUTHEAST ARIZONA

CITY           SKY/WX    TMP DP  RH WIND       PRES   REMARKS
TUCSON         SUNNY     90   7   4 W12G20    29.82F
DAVIS-MONTHAN  SUNNY     88   9   5 NW12G21   29.80
RYAN FIELD     SUNNY     91   5   4 W9G20     29.81F
NOGALES        SUNNY     86  13   6 W15G24    29.88F
SIERRA VISTA   SUNNY     82   0   4 W14G24    29.93
SAFFORD        SUNNY     88  11   5 NW22G31   29.78F
$$

AZZ532-102300-
SOUTHWEST ARIZONA

CITY           SKY/WX    TMP DP  RH WIND       PRES   REMARKS
YUMA           SUNNY     94  27   9 W8        29.70F
$$

CAZ041-043-047-048-061-525>527-560>570-102300-
SOUTHERN CALIFORNIA

CITY           SKY/WX    TMP DP  RH WIND       PRES   REMARKS
DOWNTOWN L.A.  SUNNY     73  49  42 W5        29.83F
L.A. AIRPORT   SUNNY     65  50  58 SW15      29.85F
SAN DIEGO      MOSUNNY   69  53  56 W8        29.88F
BURBANK        SUNNY     80  47  31 S13       29.81F
ONTARIO        MOSUNNY   83  47  28 W8        29.81F
RIVERSIDE      SUNNY     80  49  33 W12       29.81F
PALM SPRINGS   MOSUNNY   97  30   9 N8        29.73F
EL CENTRO NAS  MOSUNNY   96  26   8 E5        29.69F
IMPERIAL       SUNNY     96  27   8 VRB7      29.67F
BLYTHE         SUNNY     94  16   6 VRB3      29.71F
NEEDLES        SUNNY     92   8   4 NE8       29.73F
$$

NVZ020-UTZ003-102300-
SOUTHERN NEVADA-UTAH

CITY           SKY/WX    TMP DP  RH WIND       PRES   REMARKS
LAS VEGAS      MOSUNNY   83  12   7 CALM      29.81F
SALT LAKE CITY MOSUNNY   69  16  13 NW20      29.85F
$$

NMZ009-TXZ055-102300-
NEW MEXICO-WEST TEXAS

CITY           SKY/WX    TMP DP  RH WIND       PRES   REMARKS
ALBUQUERQUE    MOSUNNY   72   0   6 W9        29.85F
EL PASO        MOSUNNY   82  11   7 W12G22    29.82F
$$


........................KEY........................
SKY/WX - SKY CONDITION/WEATHER
TMP    - TEMPERATURE IN FAHRENHEIT
DP     - DEW POINT IN FAHRENHEIT
RH     - RELATIVE HUMIDITY IN PERCENT
WIND   - DIRECTION AND SPEED IN MILES PER HOUR (MPH)
VRB    - VARIABLE WIND DIRECTION
PRES   - MEAN SEA LEVEL PRESSURE IN INCHES OF MERCURY
         F - FALLING PRESSURE   R - RISING PRESSURE
         S - STEADY PRESSURE
VSB    - VISIBILITY IN MILES
HX     - HEAT INDEX IN FAHRENHEIT
WCI    - WIND CHILL INDEX IN FAHRENHEIT
TC     - TEMPERATURE IN CELSIUS WHICH IS ALSO KNOWN AS
         TEMPERATURE IN CENTIGRADE
AFB    - AIR FORCE BASE
         LUKE AFB IS LUKE AIR FORCE BASE
         DAVIS-MONTHAN IS DAVIS-MONTHAN AIR FORCE BASE
NAS    - NAVAL AIR STATION
         EL CENTRO NAS IS EL CENTRO NAVAL AIR STATION
N/A    - NOT AVAILABLE



 

View Past Reports for Phoenix, AZ.

Products Courtesy of NOAA-NWS
NWS Information Parsing Script by Ken True at Saratoga Weather - Script by SE Lincoln Weather.